Back to catalog

SL-14 DEB

AlivePO
NORAD 45278·DEBRIS·🇷🇺 Russia

Launched Aug 15, 1991 from Plesetsk Cosmodrome

Loading…

Next Passes (next 24 hours)

TLE

FreshSource: Space-Track

Epoch: Sep 14, 2026, 02:39 UTC

1 45278U 91056Q   26257.11053562  .00009859  00000-0  82842-2 0  9999
2 45278  82.5612 298.3375 0141597  44.8280 316.4215 13.83374445327794

Track SL-14 DEB in real time with AllMySat

Download on the App Store